Home   Weather   Rae-Edzo   Past weeks

Flag for Canada Past Weather in Rae-Edzo, Northwest Territories, Canada — Yesterday and Last 2 Weeks

Now
40 °F

Chilly.


Feels Like: 33 °F
Forecast: 27 / 42 °F
Wind: 9 mph from Northeast

Location: Lac La Martre

Current Time: Apr 29, 2017 at 2:02:24 pm

Latest Report: Apr 29, 2017 at 1:00 pm


Visibility: N/A

Pressure: 30.04 "Hg

Humidity: 55%

Dew Point: 25 °F

Location of Rae-EdzoLocation

Past Weather in Rae-Edzo — Graph

°F

Rae-Edzo Temperature Yesterday

Maximum temperature yesterday: 43 °F (at 5:00 pm)
Minimum temperature yesterday: 19 °F (at 5:00 am)
Average temperature yesterday: 31 °F

High & Low Weather Summary for the Past Weeks

 TemperatureHumidityPressure
High50 °F (Apr 26, 4:00 pm)93% (Apr 15, 10:00 pm)30.80 "Hg (Apr 15, 10:00 pm)
Low-10 °F (Apr 22, 4:00 am)33% (Apr 24, 4:00 pm)29.68 "Hg (Apr 26, 7:00 am)
Average20 °F61%30.19 "Hg
* Reported Apr 14 12:00 pm — Apr 29 12:00 pm, Rae-Edzo, Weather by CustomWeather, © 2017

Note: Actual official high and low records may vary slightly from our data, if they occured in-between our weather recording intervals... More about our weather records

Advertising

Rae-Edzo Weather History for the Previous 24 Hours

Scroll right to see more
 ConditionsComfort  
Time TempWeatherWind HumidityBarometerVisibility
12:00 pm
Sat, Apr 29
40 °FQuite cool.6 mph56%30.06 "HgN/A
11:00 am38 °FChilly.7 mph61%30.05 "HgN/A
10:00 am36 °FChilly.7 mph66%30.07 "HgN/A
9:00 am31 °FChilly.7 mph77%30.06 "HgN/A
8:00 am31 °FChilly.5 mph82%30.07 "HgN/A
7:00 am27 °FChilly.5 mph84%30.08 "HgN/A
6:00 am26 °FChilly.6 mph88%30.07 "HgN/A
5:00 am22 °FCold.3 mph87%30.09 "HgN/A
4:00 am25 °FChilly.3 mph86%30.08 "HgN/A
3:00 am28 °FChilly.3 mph90%30.09 "HgN/A
1:00 am29 °FChilly.6 mph79%30.10 "HgN/A
12:00 am29 °FChilly.5 mph78%30.10 "HgN/A
11:00 pm
Fri, Apr 28
32 °FChilly.5 mph73%30.10 "HgN/A
10:00 pm35 °FChilly.5 mph67%30.10 "HgN/A
9:00 pm42 °FQuite cool.3 mph54%30.11 "HgN/A
8:00 pm42 °FQuite cool.7 mph51%30.11 "HgN/A
7:00 pm42 °FQuite cool.8 mph50%30.11 "HgN/A
6:00 pm43 °FQuite cool.9 mph48%30.11 "HgN/A
5:00 pm43 °FQuite cool.7 mph49%30.13 "HgN/A
4:00 pm40 °FChilly.8 mph57%30.14 "HgN/A
3:00 pm41 °FQuite cool.6 mph48%30.15 "HgN/A
2:00 pm36 °FChilly.8 mph57%30.16 "HgN/A
Weather by CustomWeather, © 2017

See weather overviewHow to use our weather pages